Вернуться в каталог

BREEZE-M DEB

LostHEO
NORAD 38641·DEBRIS·🇷🇺 Russia

Запущен Mar 14, 2008 с Baikonur Cosmodrome

Loading…

Ближайшие Пролёты (ближайшие 24 часа)

TLE

УстаревшееSource: Space-Track

Эпоха: Jul 24, 2015, 03:42 UTC

1 38641U 08011CQ  15205.15469590 -.00000046 +00000-0 +00000-0 0  9995
2 38641 049.4668 008.0367 6265839 039.8446 359.9521 03.02792114047417

Отслеживайте BREEZE-M DEB в реальном времени с AllMySat

Download on the App Store